Find Starlink 2266

NORAD ID: 47997 Int'l Des: 2021-024 Owner: SPXS Country: US Constellation: starlink operational
LEOCIRCULAR

实时位置

正在加载3D地球...

关于 Starlink 2266

正在加载描述...

即将过境

Passes for default location (London). Set your location on the main map for personalized predictions.

高度历史

Loading altitude history...

两行轨道根数

1 47997U 21024W 26122.09228034 -.00001239 00000-0 -28164-4 0 9998
2 47997 53.1635 58.4922 0001511 86.9285 273.1889 15.31695611283163
Epoch: May 2, 2026 • Age: 7 hours

当前状态

高度 476.2 km
速度 7.63 km/s
星下点 52.84°N, 164.02°E
发射日期 Mar 24, 2021
运行时间 5.1 years
类型 internet

技术详情

分类 Payload
质量 260.00 kg
干质量 248.00 kg
总质量 260.00 kg
长度 0.20 m
直径 2.80 m
跨度 9.00 m
形状 Box + pan
制造商 SPXS
平台类型 Starlink
阶段状态 In Orbit
所有者/国家 SPXS/US

Most Searched